GW2216 Weather Reports


Display with metric or nautical units.
time (UTC)temp
F
wind
direction
speed
MPH
gust
MPH
rain 1hr
in
rain 24hr
in
rain mn
in
humidity
%
barometer
mb
20260506003035 69 5 3.0 9.0 0.00 0.42 0.01 37 1012.0
20260506001529 67 352 6.0 11.0 0.00 0.42 0.01 38 1012.1
20260506000029 70 5 3.0 12.0 0.00 0.42 0.01 37 1012.1
20260505234536 70 71 5.0 12.0 0.00 0.42 0.01 34 1012.0
20260505233030 66 352 3.0 9.0 0.00 0.42 0.01 40 1012.0
20260505231532 67 301 4.0 14.0 0.00 0.42 0.01 40 1012.2
20260505230049 65 53 1.0 6.0 0.00 0.42 0.01 40 1012.4
20260505224532 66 122 2.0 8.0 0.00 0.42 0.01 44 1012.6
20260505223029 66 236 1.0 5.0 0.00 0.42 0.01 41 1012.8
20260505221535 67 0 2.0 11.0 0.00 0.42 0.01 47 1012.9
20260505220033 66 309 2.0 7.0 0.00 0.42 0.01 49 1013.2
20260505214531 65 226 5.0 10.0 0.00 0.42 0.01 46 1013.3
20260505213047 66 162 1.0 8.0 0.00 0.42 0.01 44 1013.4
20260505211531 65 317 1.0 8.0 0.00 0.42 0.01 50 1013.6
20260505210032 63 63 3.0 10.0 0.00 0.42 0.01 49 1013.8
20260505204531 63 43 2.0 8.0 0.00 0.43 0.01 51 1013.8
20260505203041 61 0 0.0 9.0 0.00 0.43 0.01 52 1013.9
20260505201529 61 0 3.0 9.0 0.00 0.43 0.01 55 1014.0
20260505200034 62 0 1.0 8.0 0.00 0.43 0.01 57 1014.0
20260505194530 59 22 3.0 9.0 0.00 0.43 0.01 67 1014.1
20260505193031 60 57 3.0 9.0 0.00 0.43 0.01 68 1014.0
20260505191532 57 22 4.0 10.0 0.00 0.43 0.01 71 1014.0
20260505190030 58 313 1.0 7.0 0.00 0.43 0.01 72 1014.0
20260505184529 58 42 0.0 7.0 0.00 0.44 0.01 76 1013.9
20260505183029 56 0 2.0 7.0 0.00 0.44 0.01 78 1014.0
20260505181531 54 77 2.0 8.0 0.00 0.44 0.01 77 1014.1
20260505180033 52 0 0.0 5.0 0.00 0.44 0.01 79 1014.0
20260505174532 52 0 0.0 4.0 0.00 0.44 0.01 79 1013.8
20260505173040 51 119 0.0 3.0 0.00 0.44 0.01 84 1013.7
20260505171531 49 196 0.0 4.0 0.00 0.44 0.01 85 1013.6
20260505170033 49 174 1.0 3.0 0.00 0.44 0.01 86 1013.6
20260505164547 48 109 0.0 4.0 0.00 0.44 0.01 89 1013.5
20260505163031 47 159 0.0 4.0 0.00 0.44 0.01 89 1013.4
20260505161530 47 106 0.0 4.0 0.00 0.44 0.01 90 1013.2
20260505153047 45 142 0.0 4.0 0.00 0.44 0.01 90 1012.9
20260505151600 45 125 0.0 3.0 0.00 0.44 0.01 90 1012.7
20260505124530 43 0 0.0 2.0 0.00 0.44 0.01 93 1011.3
20260505123034 43 332 0.0 2.0 0.00 0.44 0.01 93 1011.2
20260505121536 43 0 0.0 0.0 0.00 0.44 0.01 93 1011.2
20260505120030 43 20 1.0 2.0 0.00 0.44 0.01 93 1011.2
20260505114538 43 0 0.0 3.0 0.00 0.44 0.01 93 1011.2
20260505113028 43 0 0.0 3.0 0.00 0.44 0.01 93 1011.1
20260505111536 44 0 0.0 0.0 0.01 0.44 0.01 94 1011.0
20260505101532 43 249 1.0 3.0 0.00 0.43 0.00 93 1011.3
20260505100041 43 0 0.0 3.0 0.00 0.43 0.00 94 1011.4
20260505094529 42 0 0.0 0.0 0.00 0.43 0.00 94 1011.5
20260505093029 42 0 0.0 0.0 0.00 0.43 0.00 93 1011.6
20260505091547 42 0 0.0 2.0 0.00 0.43 0.00 93 1011.6
20260505090049 43 0 0.0 0.0 0.00 0.43 0.00 93 1011.6
20260505084537 43 0 0.0 0.0 0.00 0.43 0.00 93 1011.8
20260505083039 43 0 0.0 3.0 0.00 0.43 0.00 93 1012.1
20260505081548 44 0 0.0 0.0 0.00 0.43 0.00 92 1012.2
20260505080039 44 94 0.0 3.0 0.00 0.43 0.00 92 1011.9
20260505074530 43 242 2.0 4.0 0.01 0.43 0.00 92 1011.5
20260505073030 43 228 2.0 4.0 0.02 0.43 0.00 92 1012.3
20260505071531 43 0 0.0 0.0 0.02 0.43 0.00 92 1012.4
20260505070031 43 0 0.0 4.0 0.02 0.43 0.00 91 1012.1
20260505064533 43 146 2.0 6.0 0.01 0.42 0.42 92 1011.7
20260505063039 43 179 3.0 5.0 0.00 0.41 0.41 92 1011.4
20260505061534 43 138 2.0 6.0 0.01 0.41 0.41 92 1011.5
20260505060032 43 147 3.0 7.0 0.01 0.41 0.41 92 1011.4
20260505054532 43 208 3.0 6.0 0.01 0.41 0.41 92 1011.5
20260505053032 43 180 3.0 5.0 0.01 0.41 0.41 92 1011.6
20260505051532 43 0 0.0 3.0 0.00 0.40 0.40 92 1011.9
20260505041531 43 177 0.0 7.0 0.04 0.40 0.40 92 1011.5
20260505040038 44 352 5.0 11.0 0.11 0.40 0.40 91 1011.6
20260505034532 45 74 1.0 4.0 0.11 0.40 0.40 91 1011.0
20260505033040 44 217 7.0 14.0 0.10 0.39 0.39 91 1009.9
20260505031529 44 219 5.0 8.0 0.06 0.35 0.35 91 1011.4
20260505030029 45 0 1.0 5.0 0.00 0.29 0.29 90 1011.6
20260505024552 45 0 0.0 5.0 0.01 0.29 0.29 91 1011.5
20260505023037 45 72 1.0 9.0 0.04 0.29 0.29 90 1010.9
20260505021544 45 104 3.0 10.0 0.10 0.29 0.29 89 1010.7
20260505020030 46 273 1.0 22.0 0.15 0.29 0.29 83 1010.0
20260505014531 46 203 9.0 16.0 0.20 0.28 0.28 86 1009.6
20260505013029 45 238 5.0 13.0 0.20 0.24 0.24 89 1012.1
20260505011547 45 188 10.0 16.0 0.16 0.19 0.19 88 1011.7
20260505010032 45 231 10.0 16.0 0.12 0.14 0.14 87 1011.7
20260505004540 46 216 6.0 14.0 0.05 0.07 0.07 85 1011.9